Home   Weather   Independence   Past weeks

Flag for USA Past Weather in Independence, Missouri, USA — Yesterday and Last 2 Weeks

Now
44 °F

Overcast.


Feels Like: 38 °F
Forecast: 40 / 63 °F
Wind: 12 mph from Northwest

Location: Lee's Summit Municipal Airport

Current Time: Apr 27, 2017 at 12:40:27 am

Latest Report: Apr 26, 2017 at 11:53 pm


Visibility: 10 mi

Pressure: 29.66 "Hg

Humidity: 76%

Dew Point: 37 °F

Location of IndependenceLocation

Past Weather in Independence — Graph

°F

Independence Temperature Yesterday

Maximum temperature yesterday: 54 °F (at 12:10 am)
Minimum temperature yesterday: 43 °F (at 8:53 am)
Average temperature yesterday: 47 °F

High & Low Weather Summary for the Past Weeks

 TemperatureHumidityPressure
High80 °F (Apr 15, 4:53 pm)100% (Apr 16, 3:04 am)30.27 "Hg (Apr 16, 3:04 am)
Low42 °F (Apr 23, 5:53 am)19% (Apr 23, 4:53 pm)29.39 "Hg (Apr 25, 3:53 pm)
Average62 °F66%29.94 "Hg
* Reported Apr 11 10:53 pm — Apr 26 10:53 pm, Independence, Weather by CustomWeather, © 2017

Note: Actual official high and low records may vary slightly from our data, if they occured in-between our weather recording intervals... More about our weather records

Advertising

Independence Weather History for the Previous 24 Hours

Scroll right to see more
 ConditionsComfort  
Time TempWeatherWind HumidityBarometerVisibility
10:53 pm
Wed, Apr 26
44 °FOvercast.9 mph79%29.67 "Hg10 mi
10:41 pm44 °FOvercast.9 mph82%29.67 "Hg10 mi
10:05 pm45 °FMostly cloudy.9 mph76%29.65 "Hg10 mi
9:53 pm45 °FMostly cloudy.14 mph76%29.67 "Hg10 mi
9:20 pm46 °FMostly cloudy.13 mph77%29.65 "Hg10 mi
7:53 pm46 °FMostly cloudy.10 mph83%29.61 "Hg10 mi
6:53 pm47 °FLight rain. Mostly cloudy.14 mph80%29.59 "Hg9 mi
5:53 pm47 °FOvercast.9 mph80%29.58 "Hg10 mi
5:17 pm47 °FMore clouds than sun.13 mph83%29.58 "Hg10 mi
4:53 pm47 °FMostly cloudy.10 mph86%29.59 "Hg10 mi
3:53 pm46 °FOvercast.10 mph86%29.61 "Hg10 mi
2:53 pm46 °FLight rain. Overcast.14 mph86%29.61 "Hg10 mi
1:53 pm46 °FOvercast.9 mph83%29.62 "Hg10 mi
1:38 pm46 °FOvercast.12 mph83%29.61 "Hg10 mi
1:05 pm46 °FOvercast.13 mph83%29.61 "Hg10 mi
12:53 pm45 °FOvercast.13 mph90%29.61 "Hg10 mi
11:53 am44 °FOvercast.13 mph89%29.65 "Hg10 mi
11:05 am43 °FOvercast.14 mph89%29.62 "Hg10 mi
10:53 am43 °FLow clouds.14 mph93%29.63 "Hg10 mi
9:53 am43 °FLow clouds.14 mph97%29.59 "Hg10 mi
9:22 am43 °FMostly cloudy.17 mph97%29.60 "Hg10 mi
9:06 am43 °FMostly cloudy.15 mph93%29.61 "Hg10 mi
8:53 am43 °FLow clouds.16 mph97%29.61 "Hg10 mi
7:53 am44 °FFog.15 mph96%29.57 "Hg4 mi
6:53 am45 °FFog.13 mph97%29.59 "Hg6 mi
6:27 am45 °FFog.9 mph100%29.57 "Hg4 mi
6:18 am45 °FMostly cloudy.12 mph100%29.56 "Hg7 mi
5:53 am45 °FMostly cloudy.10 mph97%29.54 "Hg7 mi
5:22 am46 °FFog.10 mph100%29.53 "Hg3 mi
5:03 am46 °FFog.13 mph96%29.53 "Hg5 mi
4:53 am46 °FFog.18 mph96%29.51 "Hg4 mi
4:20 am48 °FOvercast.10 mph93%29.52 "Hg10 mi
3:53 am48 °FLow clouds.12 mph96%29.50 "Hg10 mi
2:53 am49 °FLight rain. Low clouds.20 mph100%29.46 "Hg9 mi
1:53 am52 °FLight rain. Low clouds.13 mph97%29.47 "Hg7 mi
1:32 am52 °FLight rain. Fog.8 mph100%29.49 "Hg6 mi
1:17 am53 °FThundershowers. Fog.6 mph100%29.50 "Hg5 mi
1:05 am53 °FRain. Fog.6 mph96%29.50 "Hg5 mi
12:53 am53 °FRain. Fog.8 mph96%29.49 "Hg4 mi
12:35 am54 °FRain. Fog.8 mph97%29.51 "Hg5 mi
12:10 am54 °FLight rain. Overcast.9 mph100%29.50 "Hg7 mi
Weather by CustomWeather, © 2017

See weather overviewHow to use our weather pages